Location: ??
(34.9170°N, 135.5016°E)
Time: 08:00:08
(UTC+00:00)

Explorer 7 - Pass Details

Date: 28 February 2021
Orbit: 484 x 677 km, 50.3° (Epoch: 17 April)

Event Time Altitude Azimuth Distance (km) Brightness Sun altitude
Rises 06:24:42 0° 253° (WSW) 2,914 11.7 27.4°
Reaches altitude 10° 06:27:15 10° 262° (W) 1,977 10.9 26.9°
Maximum altitude 06:31:21 33° 327° (NNW) 999 8.4 26.2°
Drops below altitude 10° 06:35:16 10° 33° (NNE) 1,870 9.1 25.5°
Sets 06:37:37 0° 43° (NE) 2,732 9.8 25.1°
